User: anonymous   Login
Location: Dittelbrunn
(50.0738°N, 10.2196°E)
Time: 01:00:00
(UTC+00:00)
Language:

NOSS 8 (F) - Orbit

View from above orbital plane
View from above orbital plane
View from above satellite
View from above satellite

Ground track
Ground track

The orbit data is extracted from the following two-line orbital elements,

1 18010U 87043F   20336.50885776 +.00001171 +00000-0 +11034-3 0  9994
2 18010 063.3044 052.5203 0940828 066.5662 303.1397 13.46323514069879
Epoch (UTC): 01 December 2020 12:12:45
Eccentricity: 0.0940828
inclination: 63.3044°
perigee height: 383 km
apogee height: 1788 km
right ascension of ascending node: 52.5203°
argument of perigee: 66.5662°
revolutions per day: 13.46323514
mean anomaly at epoch: 303.1397°
orbit number at epoch: 6987

The dashed part of the orbit path shows where the satellite is in the earth's shadow,  

DLR